492  
ASUS46 KLOX 281513  
RWRCA  
 
SOUTHERN CALIFORNIA WEATHER ROUNDUP  
NATIONAL WEATHER SERVICE OXNARD CALIFORNIA  
800 AM PDT TUE MAR 28 2017  
 
NOTE: "FAIR" INDICATES FEW OR NO CLOUDS BELOW 12,000 FEET WITH NO  
SIGNIFICANT WEATHER AND/OR S TO VISIBILITY
.  
 
- STATIONS PRECEEDED BY AN ASTERISK (*) ARE NOT NWS OR FAA  
STATIONS AND ARE NOT SUBJECT TO NWS AND FAA QUALITY CONTROL.
 
 
CAZ041-042-087-281600-  
LA AND ORANGE COUNTY COASTAL AREAS  
 
 
CITY SKY/WX TMP DP RH WIND PRES REMARKS
 
L.A. DOWNTOWN SUNNY 60 48 64 CALM 30.02R  
L.A. AIRPORT MOSUNNY 57 50 77 SE6 30.03R  
LONG BEACH NOT AVBL  
 
CITY SKY/WX TMP DP RH WIND PRES REMARKS
 
AVALON N/A 50 N/A N/A MISG N/A  
FULLERTON SUNNY 55 49 80 CALM 30.02R  
*GETTY CENTER N/A N/A N/A N/A VRB16G32 N/A  
HAWTHORNE SUNNY 56 49 77 CALM 30.04R  
*LEO CARRILLO N/A 66 33 29 NE13G26 N/A  
*LOS ALAMITOS SUNNY 53 49 86 CALM 30.03R  
*REDONDO BEACH N/A 57 45 64 CALM 30.02R  
SANTA ANA SUNNY 57 50 77 CALM 30.03R  
STA MONICA APT SUNNY 63 33 32 N9 30.02R  
TORRANCE SUNNY 55 43 62 CALM 30.03R  
*UCLA N/A 61 30 31 NW17 29.99R  
 

 
 
CAZ547-548-048-281600-  
LA COUNTY VALLEYS AND INLAND EMPIRE  
 
 
CITY SKY/WX TMP DP RH WIND PRES REMARKS
 
BURBANK SUNNY 59 30 33 N13 30.02R  
VAN NUYS SUNNY 59 34 39 N21G29 30.03R  
 
CITY SKY/WX TMP DP RH WIND PRES REMARKS
 
CORONA AIRPORT SUNNY 50 44 80 CALM 30.04R  
*CHATSWORTH N/A 60 35 38 NE18 30.08S  
CHINO SUNNY 51 46 83 N5 30.05R  
*CLAREMONT N/A 52 37 56 CALM N/A  
MARCH AFB SUNNY 58 27 30 N21G26 30.02R  
*NORTHRIDGE N/A 59 30 33 N9G20 N/A  
ONTARIO SUNNY 54 42 64 CALM 30.03R  
*PASADENA N/A 55 48 76 CALM N/A  
POMONA SUNNY 50 37 62 CALM 30.06  
RIVERSIDE SUNNY 63 26 24 NE14G23 30.03R  
SAN BERNARDINO SUNNY 59 25 27 NW21 30.03S  
*SAN GABRIEL N/A 56 49 75 CALM 30.10R  
*SAN RAFAEL HI N/A 57 26 30 N2 N/A  
*SAUGUS N/A 54 34 46 NE6 N/A  
*WHITEMAN AP SUNNY 61 27 27 N12G20 30.07  
*WHITTIER HILL N/A 56 50 81 NW2 N/A  
*WOODLAND HILL N/A 59 32 36 NW10G16 N/A  
 

 
 
CAZ054-055-281600-  
LA AND SAN BERNARDINO COUNTY MOUNTAINS  
 
 
CITY SKY/WX TMP DP RH WIND PRES REMARKS
 
*ACTON N/A 50 33 52 E7 N/A  
*BIG BEAR AIRP SUNNY 34 12 40 CALM 30.12S  
*BIG PINES N/A 30 12 46 CALM N/A  
SANDBERG MOSUNNY 40 36 86 N14G22 30.15R WCI 32  
 

 
 
CAZ028-029-059-060-099-281600-  
ANTELOPE VALLEY AND SURROUNDING AREAS  
 
 
CITY SKY/WX TMP DP RH WIND PRES REMARKS
 
LANCASTER SUNNY 44 36 73 W5 30.15  
PALMDALE SUNNY 47 37 68 CALM 30.14R  
*POPPY PARK N/A 47 36 66 NW9G22 N/A  
 
CITY SKY/WX TMP DP RH WIND PRES REMARKS
 
29 PALMS SUNNY 54 22 28 W13 30.14R  
BARSTOW/DAGGET SUNNY 54 23 30 SW7 30.12R  
BISHOP MOSUNNY 43 21 41 NW9 30.20R  
CHINA LAKE SUNNY 54 21 27 NW13 30.11R  
EDWARDS AFB MOSUNNY 42 35 79 SW3 30.12R  
MOJAVE SUNNY 43 34 70 CALM 30.13R  
NEEDLES SUNNY 64 27 24 N12 29.98R  
VICTORVILLE SUNNY 43 34 70 CALM 30.13R  
 

 
 
CAZ039-040-281600-  
VENTURA AND SANTA BARBARA COUNTY COAST  
 
 
CITY SKY/WX TMP DP RH WIND PRES REMARKS
 
CAMARILLO SUNNY 55 41 59 CALM 30.07R  
NWS OXNARD N/A 52 39 60 CALM 30.06R  
OXNARD AIRPORT SUNNY N/A N/A N/A NE7 30.07R  
*POINT MUGU MOSUNNY 53 42 66 N6 30.07R  
SBA APT/GOLETA SUNNY 61 37 41 SE5 30.06R  
*SANTA BARBARA N/A 63 34 34 CALM 30.14R  
*VENTURA N/A 53 41 65 CALM 30.05R  
 

 
 
CAZ044-045-281600-  
VENTURA COUNTY VALLEYS  
 
 
CITY SKY/WX TMP DP RH WIND PRES REMARKS
 
*SIMI VALLEY N/A 58 38 46 E6 30.04S  
*WESTLAKE VILL N/A 56 36 46 E1 30.05S  
*OJAI N/A 51 42 71 CALM 30.04F  
 

 
 
CAZ053-281600-  
VENTURA COUNTY MOUNTAINS  
 
 
CITY SKY/WX TMP DP RH WIND PRES REMARKS
 
*LOCKWOOD VLY N/A 34 30 86 MISG N/A  
*ROSE VALLEY N/A 46 32 57 MISG N/A  
 

 
 
CAZ034-035-036-281600-  
CENTRAL COAST AND SANTA YNEZ VALLEY  
 
 
CITY SKY/WX TMP DP RH WIND PRES REMARKS
 
SAN LUIS OBISP SUNNY 54 44 69 N14 30.19R  
SANTA MARIA SUNNY 50 46 86 W3 30.17R  
 
CITY SKY/WX TMP DP RH WIND PRES REMARKS
 
*CAL POLY SLO N/A 50 45 81 N7 N/A  
*LOMPOC SUNNY 52 44 74 NW9 30.16R  
*PISMO BEACH N/A 56 46 69 NW3 30.18R  
*SANTA YNEZ FAIR 52 37 58 NW7 30.12R  
 

 
 
CAZ037-038-051-281600-  
SAN LUIS OBISPO COUNTY INTERIOR AND CUYAMA VALLEY  
 
 
CITY SKY/WX TMP DP RH WIND PRES REMARKS
 
*CUYAMA N/A 43 38 81 CALM 30.17R  
PASO ROBLES SUNNY 41 40 96 SE5 30.19R  
 

 
 
CAZ032-033-061-281600-  
SOUTHERN DESERTS  
 
 
CITY SKY/WX TMP DP RH WIND PRES REMARKS
 
BLYTHE SUNNY 66 25 21 NW20G28 29.94R  
IMPERIAL SUNNY 66 35 31 N15G22 29.96R  
PALM SPRINGS SUNNY 59 38 45 CALM 30.02R  
THERMAL SUNNY 68 23 18 NW10 29.99R  
 

 
 
ELSEWHERE ACROSS THE WESTERN UNITED STATES AND MEXICO  
 
 
CITY SKY/WX TMP DP RH WIND PRES REMARKS
 
DEATH VALLEY, N/A 66 25 21 E7 N/A  
DENVER, CO CLOUDY 44 40 85 NW14 29.85R  
GRAND CANYON, SUNNY 39 28 64 N12G17 29.94R WCI 32  
HONOLULU, HI MOCLDY 75 63 64 N6 30.08R  
KAHULUI, MAUI CLEAR 63 59 88 S3 30.08S  
LAKE TAHOE, CA SUNNY 26 22 84 S6 30.22R WCI 19  
LAS VEGAS, NV MOSUNNY 57 20 23 NW17 30.06R  
MAMMOTH LAKES, FAIR 30 17 58 W12 30.23R WCI 20  
MEXICO CITY, M SUNNY 66 41 39 E2 30.28R  
PHOENIX, AZ MOSUNNY 61 36 39 NW10 29.84R  
PORTLAND, OR CLOUDY 48 40 73 S8 30.33R  
RENO, NV MOSUNNY 35 27 72 CALM 30.32R  
SALT LAKE CITY PTSUNNY 40 32 73 NW13 30.13R WCI 32  
SAN DIEGO, CA MOSUNNY 57 49 74 CALM 30.03R  
SAN FRANCISCO, MOSUNNY 53 45 74 NW5 30.24R  
SAN JOSE, CA PTSUNNY 49 44 83 S3 30.25R  
SEATTLE, WA LGT RAIN 46 41 82 S9 30.20S  
TIJUANA, MEX SUNNY 52 45 76 CALM 30.04R  
 

 
 
STATION/POSITION TIME TEMP WIND PRES VSBY WAVE
 
AIR SEA DIR/SP/G HT/PER  
(UTC) (F) (DEG/KT/KT) (MB) (MI) (FT/S)  
POINT ARGUELLO B NOT AVBL  
WEST SANTA BARBA 1450 55 55 330/ 23/ 27 1019.4R 10/11  
POINT CONCEPTION NOT AVBL  
EAST SANTA BARBA 1500 280/ 6/ 10 1018.6  
SANTA MONICA BAY 1500 60 59 320/ 14/ 17 1017.0  
 
CLICK HERE TO GO TO PREVIOUS BULLETINS.

The Nexlab CA Page Main Text Page